Lexington Weather

Lexington, Massachusetts, USA

28°F
12/12/2019 4:20pm 
  • Lexington Conditions: Partly cloudy
  • Temperature: 27.9°F / -2.3°CColder 1.4°F than last hour.
  • Dew Point: 19.9°FDecreased 0.2°Fsince last hour.
  • Relative Humidity: 72%Increased 4.0% since last hour.
  • Wind: Wind from WSW WSW 1 mph, 10-min avg: 1 mph, gust: 2 mph
  • Barometer: 30.65 in Steady
  • Visibility: 10 miles
  • Snow Today: 0.0 in
  •   

Regional Weather Roundup
for Boston / Norton, MA

        
000
ASUS41 KBOX 101210
RWRBOX

REGIONAL WEATHER ROUNDUP
NATIONAL WEATHER SERVICE BOSTON/NORTON MA
700 AM EST TUE DEC 10 2019

NOTE:  "FAIR" INDICATES FEW OR NO CLOUDS BELOW 12,000 FEET WITH NO 
SIGNIFICANT WEATHER AND/OR OBSTRUCTIONS TO VISIBILITY.

MAZALL-101300-
EASTERN MASSACHUSETTS
  
CITY           SKY/WX    TMP DP  RH WIND       PRES   REMARKS
BOSTON         CLOUDY    58  51  78 SW14      29.73R                  
6HR MIN TEMP:  58; 6HR MAX TEMP:  60; 6HR PCP:  0.03;                

BEVERLY        MOCLDY    56  51  84 SW15      29.71R                  
LAWRENCE       CLOUDY    53  50  89 SW9       29.72R                  
BEDFORD        CLOUDY    55  50  83 SW9       29.71R                  
BLUE HILL        N/A     54  51  90 SW18G28   29.72R                  
NORWOOD        FAIR      59  51  75 SW10      29.73R                  
MARSHFIELD     MOCLDY    57  55  94 SW14G22   29.73S                  
PLYMOUTH       CLOUDY    56  54  93 SW16G23   29.76R                  
TAUNTON        FAIR      56  52  86 SW6       29.76R                  
NEW BEDFORD    CLOUDY    56  53  90 SW16      29.77R                  
$$

MAZALL-101300-
CAPE COD AND THE ISLANDS
  
CITY           SKY/WX    TMP DP  RH WIND       PRES   REMARKS
FALMOUTH       CLOUDY    55  55 100 W20G30    29.79R FOG              
HYANNIS        CLOUDY    58  54  86 SW23G30   29.77S                  
CHATHAM        CLOUDY    51  50  96 SW12G18   29.82R FOG              
PROVINCETOWN   MOCLDY    51  51 100 SW18      29.77R FOG              
NANTUCKET      CLOUDY    53  51  93 SW17G25   29.83R FOG              
MARTHAS VNYRD  CLOUDY    55  54  96 SW12      29.80S FOG              
$$
 
MAZALL-101300-
CENTRAL AND WESTERN MASSACHUSETTS
  
CITY           SKY/WX    TMP DP  RH WIND       PRES   REMARKS
WORCESTER      CLOUDY    51  49  92 SW20G28   29.73R                  
6HR MIN TEMP:  50; 6HR MAX TEMP:  51; 6HR PCP: TRACE;                

FITCHBURG      FAIR      53  47  79 SW8G21    29.71R                  
ORANGE         MOCLDY    52  47  83 S14G21    29.71R                  
SPRINGFIELD    CLOUDY    48  48 100 S12       29.72R                  
WESTFIELD      MOCLDY    50  47  89 S10       29.73R                  
NORTH ADAMS    FAIR      42  40  92 E5        29.69S                  
PITTSFIELD     CLOUDY    49  46  90 S13       29.69S                  
$$
 
RIZALL-101300-
RHODE ISLAND
  
CITY           SKY/WX    TMP DP  RH WIND       PRES   REMARKS
PROVIDENCE     MOCLDY    56  54  93 SW9G20    29.76R                  
6HR MIN TEMP:  56; 6HR MAX TEMP:  58; 6HR PCP:  0.11;                

NEWPORT        CLOUDY    54  51  90 S9        29.78R FOG              
BLOCK ISLAND   CLOUDY    53  52  96 SW15      29.80F FOG              
SMITHFIELD     CLOUDY    55  53  93 SW10      29.75R                  
WESTERLY       CLOUDY    56  51  84 SW10      29.80R                  
$$
 
CTZALL-101300-
CONNECTICUT
  
CITY           SKY/WX    TMP DP  RH WIND       PRES   REMARKS
BRADLEY INTL   CLOUDY    45  44  97 S10       29.73S                  
6HR MIN TEMP:  45; 6HR MAX TEMP:  49; 6HR PCP: TRACE;                

HARTFORD       CLOUDY    53  51  93 S7        29.75R                  
BRIDGEPORT     FAIR      52  50  93 SW7       29.77S                  
DANBURY        MOCLDY    54  50  86 SW7       29.76R                  
GROTON         FAIR      51  51 100 SW9       29.78R FOG              
NEW HAVEN      FAIR      51  49  92 S3        29.77R                  
CHESTER        CLOUDY    55  54  94 SW9G18    29.78R                  
MERIDEN        CLOUDY    53  51  93 S9        29.76R                  
WILLIMANTIC    CLOUDY    56  53  90 SW5       29.77R                  
OXFORD         CLOUDY    54  52  93 SW8       29.76R                  
$$

MEZ002-015-021-024-NHZ003-005-008-011-012-014-VTZ005-008-101300-
NORTHERN NEW ENGLAND
  
CITY           SKY/WX    TMP DP  RH WIND       PRES   REMARKS
PORTLAND ME    CLOUDY    53  48  83 S8        29.66R                  
6HR MIN TEMP:  53; 6HR MAX TEMP:  55;                                

BANGOR ME      MOCLDY    52  50  93 S9        29.60S                  
CONCORD NH     MOCLDY    50  46  86 S6        29.68R                  
MANCHESTER NH  CLOUDY    51  48  89 S6        29.68R                  
NASHUA NH      MOCLDY    52  51  97 CALM      29.69R                  
PORTSMOUTH NH  CLOUDY    51  50  99 SW7       29.68R                  
JAFFREY NH     CLOUDY    49  46  90 S10       29.71R                  
KEENE NH       CLOUDY    48  46  93 S9        29.70R                  
BURLINGTON VT  CLOUDY    50  45  83 S18G28    29.55R                  
MT. WASHINGTON FOG       34  34 100 W58G63      N/A  VSB 0   WCI  16  
$$

NYZ052-076-101300-
EASTERN NEW YORK
  
CITY           SKY/WX    TMP DP  RH WIND       PRES   REMARKS
ALBANY         CLOUDY    49  44  83 S15       29.68R                  
6HR MIN TEMP:  47; 6HR MAX TEMP:  49; 6HR PCP:  0.01;                

NEW YORK CITY  MOCLDY    56  51  84 S5        29.76F                  
6HR MIN TEMP:  56; 6HR MAX TEMP:  58;                                

$$
 
ANZALL-101300-
MARINE OBSERVATIONS
  
STATION/POSITION TIME  TEMP    WIND        PRES    VSBY  WAVE
                       AIR SEA DIR/SP/G                  HT/PER
                 (UTC) (F)     (DEG/KT/KT) (MB)    (MI)  (FT/S)
BOSTON BUOY      1150   53 48  220/ 12/ 14 1006.0R         3/ 8
BUZZARDS BAY     1100   53     230/ 17/ 17 1009.1R
NANTUCKET SOUND  1140      43              1009.3R
MASS BAY-STELLWA 1104   49 46  230/ 10/ 12 1004.2R  1 7/8  5/ 8
ISLE OF SHOALS   1100   53     220/ 23/ 24 1004.4R
S OF BLOCK IS    1200      53                N/A          14/10
$$

......................KEY.........................
  SKY/WX - SKY CONDITION/PRESENT WEATHER
  TMP    - TEMPERATURE IN FAHRENHEIT
  DWPT   - DEWPOINT IN FAHRENHEIT
  RH     - RELATIVE HUMIDITY IN PERCENT
  WIND   - DIRECTION AND SPEED IN MPH
  PRES   - MEAN SEA LEVEL PRESSURE IN INCHES OF HG
  WCI    - WIND CHILL INDEX
  VSB    - VISIBILITY IN MILES
  HX     - HEAT INDEX
  TC     - TEMPERATURE IN CELSIUS
  VRB    - VARIABLE WIND DIRECTION
  N/A    - NOT AVAILABLE
  
      

Other recent Regional Weather Roundups

Thu Dec 12, 4:01pm

Thu Dec 12, 3:10pm

Thu Dec 12, 3:00pm

Thu Dec 12, 2:10pm

Thu Dec 12, 2:01pm

Thu Dec 12, 1:10pm

Thu Dec 12, 1:00pm

Thu Dec 12, 12:10pm

Thu Dec 12, 12:00pm

Thu Dec 12, 11:10am

Thu Dec 12, 11:00am

Thu Dec 12, 10:10am

Thu Dec 12, 8:10am

Thu Dec 12, 8:00am

Thu Dec 12, 7:10am

Thu Dec 12, 7:00am

Thu Dec 12, 6:10am

Thu Dec 12, 6:00am

Thu Dec 12, 5:10am

Thu Dec 12, 5:00am

Thu Dec 12, 4:10am

Thu Dec 12, 4:00am

Thu Dec 12, 3:10am

Thu Dec 12, 3:00am

Thu Dec 12, 2:10am

Thu Dec 12, 2:00am

Thu Dec 12, 1:10am

Thu Dec 12, 1:00am

Thu Dec 12, 12:10am

Thu Dec 12, 12:00am

Wed Dec 11, 11:10pm

Wed Dec 11, 11:00pm

Wed Dec 11, 10:10pm

Wed Dec 11, 10:00pm

Wed Dec 11, 9:10pm

Wed Dec 11, 9:00pm

Wed Dec 11, 8:10pm

Wed Dec 11, 8:00pm

Wed Dec 11, 7:10pm

Wed Dec 11, 7:00pm

Wed Dec 11, 6:10pm

Wed Dec 11, 6:00pm

Wed Dec 11, 5:10pm

Wed Dec 11, 5:01pm

Wed Dec 11, 4:10pm

Wed Dec 11, 4:00pm

Wed Dec 11, 3:10pm

Wed Dec 11, 3:01pm

Wed Dec 11, 2:10pm

Wed Dec 11, 2:00pm

Wed Dec 11, 1:10pm

Wed Dec 11, 1:00pm

Wed Dec 11, 12:10pm

Wed Dec 11, 12:00pm

Wed Dec 11, 11:10am

Wed Dec 11, 11:00am

Wed Dec 11, 10:10am

Wed Dec 11, 10:00am

Wed Dec 11, 9:10am

Wed Dec 11, 9:00am

Wed Dec 11, 8:10am

Wed Dec 11, 8:00am

Wed Dec 11, 7:10am

Wed Dec 11, 7:00am

Wed Dec 11, 6:10am

Wed Dec 11, 6:00am

Wed Dec 11, 5:10am

Wed Dec 11, 5:00am

Wed Dec 11, 4:10am

Wed Dec 11, 4:00am

Wed Dec 11, 3:10am

Wed Dec 11, 3:01am

Wed Dec 11, 2:10am

Wed Dec 11, 2:01am

Wed Dec 11, 1:10am

Wed Dec 11, 1:00am

Wed Dec 11, 12:10am

Wed Dec 11, 12:00am

Tue Dec 10, 11:10pm

Tue Dec 10, 11:00pm

Tue Dec 10, 10:10pm

Tue Dec 10, 10:00pm

Tue Dec 10, 9:10pm

Tue Dec 10, 9:01pm

Tue Dec 10, 8:10pm

Tue Dec 10, 8:00pm

Tue Dec 10, 7:10pm

Tue Dec 10, 7:01pm

Tue Dec 10, 6:10pm

Tue Dec 10, 6:01pm

Tue Dec 10, 5:10pm

Tue Dec 10, 5:00pm

Tue Dec 10, 4:10pm

Tue Dec 10, 4:01pm

Tue Dec 10, 3:10pm

Tue Dec 10, 3:01pm

Tue Dec 10, 2:10pm

Tue Dec 10, 2:01pm

Tue Dec 10, 1:10pm

Tue Dec 10, 1:00pm

Tue Dec 10, 12:10pm

Tue Dec 10, 12:00pm

Tue Dec 10, 11:10am

Tue Dec 10, 11:00am

Tue Dec 10, 10:10am

Tue Dec 10, 10:00am

Tue Dec 10, 9:10am

Tue Dec 10, 9:01am

Tue Dec 10, 8:10am

Tue Dec 10, 8:00am

Tue Dec 10, 7:00am

Tue Dec 10, 6:10am

Tue Dec 10, 6:00am

Tue Dec 10, 5:10am

Tue Dec 10, 5:00am

Tue Dec 10, 4:10am

Tue Dec 10, 4:00am

Tue Dec 10, 3:10am

Tue Dec 10, 3:00am

Tue Dec 10, 2:10am

Tue Dec 10, 2:01am

Tue Dec 10, 1:10am

Tue Dec 10, 1:00am

Tue Dec 10, 12:10am

Tue Dec 10, 12:01am

Mon Dec 9, 11:10pm

Mon Dec 9, 11:01pm

Mon Dec 9, 10:10pm

Mon Dec 9, 10:00pm

Mon Dec 9, 9:10pm

Mon Dec 9, 9:01pm

Mon Dec 9, 8:10pm

Mon Dec 9, 8:01pm

Mon Dec 9, 7:10pm

Mon Dec 9, 7:00pm

Mon Dec 9, 6:10pm

Mon Dec 9, 6:00pm

Mon Dec 9, 5:10pm

Mon Dec 9, 5:01pm

Mon Dec 9, 4:10pm

Meta data:

ID: fb0923ee-79be-4dde-b14f-c3e72e2eb705
Link: https://api.weather.gov/products/fb0923ee-79be-4dde-b14f-c3e72e2eb705